Back to catalog

STARLINK-5968

AliveCommunicationsVLEO
NORAD 56010·PAYLOAD·🇺🇸 United States

Launched Mar 24, 2023 from Cape Canaveral Space Force Station

Loading…

Next Passes (next 24 hours)

TLE

FreshSource: CelesTrak SupGP

Epoch: Sep 14, 2026, 20:59 UTC

1 56010C 23042AA  26257.87479167  .00039304  00000+0  14236-2 0  2577
2 56010  43.0031  71.2213 0001853 272.4333  42.2357 15.27557569    18

Track STARLINK-5968 in real time with AllMySat

Download on the App Store